Hourly Weather Poluche

Today, 3 July, Friday

Time Temperature Precipitation Wind Pressure Humidity
00:00 +17°C° 0 mm 2 mps 742 mmHg 97%
01:00 +16°C° 0 mm 1 mps 743 mmHg 97%
02:00 +16°C° 0 mm 1 mps 743 mmHg 97%
03:00 +16°C° 0 mm 1 mps 743 mmHg 97%
04:00 +16°C° 0 mm 1 mps 743 mmHg 96%
05:00 +16°C° 0 mm 1 mps 743 mmHg 96%
06:00 +18°C° 0 mm 1 mps 744 mmHg 86%
07:00 +20°C° 0 mm 1 mps 744 mmHg 77%
08:00 +21°C° 0 mm 1 mps 745 mmHg 68%
09:00 +22°C° 0 mm 1 mps 745 mmHg 61%
10:00 +24°C° 0 mm 1 mps 745 mmHg 55%
11:00 +25°C° 0 mm 2 mps 745 mmHg 48%
12:00 +25°C° 0 mm 2 mps 745 mmHg 46%
13:00 +26°C° 0 mm 2 mps 744 mmHg 45%
14:00 +26°C° 0 mm 2 mps 744 mmHg 43%
15:00 +26°C° 0 mm 2 mps 744 mmHg 46%
16:00 +26°C° 0 mm 1 mps 744 mmHg 48%
17:00 +26°C° 0 mm 1 mps 744 mmHg 51%
18:00 +24°C° 0 mm 1 mps 744 mmHg 59%
19:00 +22°C° 0 mm 1 mps 744 mmHg 67%
20:00 +21°C° 0 mm 1 mps 744 mmHg 75%
21:00 +20°C° 0 mm 1 mps 743 mmHg 77%
22:00 +19°C° 0 mm 1 mps 743 mmHg 79%
23:00 +16°C° 0 mm 0 mps 743 mmHg 80%

Tomorrow, 4 July, Saturday

Time Temperature Precipitation Wind Pressure Humidity
00:00 +16°C° 0 mm 1 mps 743 mmHg 81%
01:00 +16°C° 0 mm 1 mps 744 mmHg 82%
02:00 +16°C° 0 mm 1 mps 744 mmHg 83%
03:00 +16°C° 0 mm 1 mps 744 mmHg 83%
04:00 +16°C° 0 mm 1 mps 744 mmHg 83%
05:00 +16°C° 0 mm 1 mps 744 mmHg 84%
06:00 +19°C° 0 mm 1 mps 744 mmHg 78%
07:00 +21°C° 0 mm 1 mps 744 mmHg 71%
08:00 +23°C° 0 mm 2 mps 745 mmHg 65%
09:00 +24°C° 0 mm 2 mps 745 mmHg 61%
10:00 +25°C° 0 mm 2 mps 745 mmHg 57%
11:00 +26°C° 0 mm 2 mps 745 mmHg 53%
12:00 +26°C° 0 mm 3 mps 745 mmHg 52%
13:00 +27°C° 0 mm 3 mps 745 mmHg 50%
14:00 +27°C° 0 mm 3 mps 745 mmHg 48%
15:00 +26°C° 0 mm 3 mps 745 mmHg 48%
16:00 +26°C° 0 mm 3 mps 745 mmHg 48%
17:00 +25°C° 0 mm 3 mps 745 mmHg 48%
18:00 +24°C° 0 mm 3 mps 745 mmHg 57%
19:00 +21°C° 0 mm 2 mps 745 mmHg 65%
20:00 +19°C° 0 mm 2 mps 745 mmHg 74%
21:00 +18°C° 0 mm 2 mps 745 mmHg 77%
22:00 +17°C° 0 mm 2 mps 745 mmHg 81%
23:00 +16°C° 0 mm 2 mps 745 mmHg 84%

Day after tomorrow, 5 July, Sunday

Time Temperature Precipitation Wind Pressure Humidity
00:00 +16°C° 0 mm 1 mps 745 mmHg 86%
01:00 +15°C° 0 mm 1 mps 745 mmHg 89%
02:00 +15°C° 0 mm 1 mps 745 mmHg 92%
03:00 +15°C° 0 mm 1 mps 745 mmHg 91%
04:00 +16°C° 0 mm 1 mps 745 mmHg 90%
05:00 +16°C° 0 mm 1 mps 745 mmHg 89%
06:00 +17°C° 0 mm 2 mps 745 mmHg 82%
07:00 +19°C° 0 mm 2 mps 745 mmHg 75%
08:00 +21°C° 0 mm 2 mps 745 mmHg 69%
09:00 +23°C° 0 mm 2 mps 745 mmHg 65%
10:00 +24°C° 0 mm 3 mps 745 mmHg 61%
11:00 +25°C° 0 mm 3 mps 745 mmHg 58%
12:00 +25°C° 0.2 mm 3 mps 744 mmHg 63%
13:00 +24°C° 0.2 mm 3 mps 744 mmHg 69%
14:00 +22°C° 0.2 mm 3 mps 744 mmHg 75%
15:00 +22°C° 0.2 mm 3 mps 744 mmHg 76%
16:00 +22°C° 0.2 mm 3 mps 743 mmHg 78%
17:00 +22°C° 0.2 mm 4 mps 743 mmHg 79%
18:00 +21°C° 0.3 mm 3 mps 743 mmHg 84%
19:00 +20°C° 0.3 mm 3 mps 743 mmHg 88%
20:00 +19°C° 0.3 mm 2 mps 743 mmHg 92%
21:00 +19°C° 0 mm 2 mps 743 mmHg 93%
22:00 +18°C° 0 mm 3 mps 743 mmHg 94%
23:00 +17°C° 0 mm 3 mps 743 mmHg 95%

6 July, Monday

Time Temperature Precipitation Wind Pressure Humidity
00:00 +17°C° 0 mm 3 mps 742 mmHg 95%
01:00 +17°C° 0 mm 3 mps 742 mmHg 95%
02:00 +17°C° 0 mm 3 mps 742 mmHg 95%
03:00 +17°C° 0 mm 3 mps 741 mmHg 95%
04:00 +17°C° 0 mm 4 mps 741 mmHg 95%
05:00 +18°C° 0 mm 4 mps 741 mmHg 94%
06:00 +19°C° 0 mm 4 mps 741 mmHg 87%
07:00 +21°C° 0 mm 5 mps 741 mmHg 80%
08:00 +22°C° 0 mm 5 mps 741 mmHg 73%
09:00 +22°C° 0.3 mm 5 mps 741 mmHg 75%
10:00 +23°C° 0.3 mm 5 mps 741 mmHg 77%
11:00 +23°C° 0.3 mm 5 mps 741 mmHg 79%
12:00 +23°C° 0.1 mm 5 mps 741 mmHg 74%
13:00 +25°C° 0.1 mm 5 mps 741 mmHg 69%
14:00 +25°C° 0.1 mm 5 mps 741 mmHg 65%
15:00 +25°C° 0.1 mm 5 mps 741 mmHg 66%
16:00 +25°C° 0.1 mm 5 mps 741 mmHg 66%
17:00 +25°C° 0.1 mm 5 mps 741 mmHg 67%
18:00 +23°C° 0 mm 4 mps 741 mmHg 71%
19:00 +22°C° 0 mm 3 mps 741 mmHg 76%
20:00 +20°C° 0 mm 2 mps 741 mmHg 80%
21:00 +19°C° 0 mm 2 mps 741 mmHg 83%
22:00 +18°C° 0 mm 2 mps 741 mmHg 86%
23:00 +17°C° 0 mm 2 mps 741 mmHg 89%

7 July, Tuesday

Time Temperature Precipitation Wind Pressure Humidity
00:00 +17°C° 0 mm 2 mps 741 mmHg 86%
01:00 +18°C° 0 mm 1 mps 741 mmHg 84%
02:00 +18°C° 0 mm 1 mps 741 mmHg 81%
03:00 +19°C° 0 mm 1 mps 741 mmHg 83%
04:00 +18°C° 0 mm 2 mps 741 mmHg 85%
05:00 +18°C° 0 mm 2 mps 741 mmHg 87%
06:00 +18°C° 0 mm 2 mps 742 mmHg 85%
07:00 +19°C° 0 mm 2 mps 742 mmHg 84%
08:00 +19°C° 0 mm 2 mps 742 mmHg 83%
09:00 +20°C° 0 mm 2 mps 742 mmHg 74%
10:00 +21°C° 0 mm 2 mps 743 mmHg 65%
11:00 +23°C° 0 mm 2 mps 743 mmHg 56%
12:00 +22°C° 0 mm 3 mps 743 mmHg 54%
13:00 +22°C° 0 mm 3 mps 743 mmHg 51%
14:00 +22°C° 0 mm 3 mps 743 mmHg 49%
15:00 +22°C° 0 mm 3 mps 743 mmHg 51%
16:00 +21°C° 0 mm 2 mps 743 mmHg 52%
17:00 +20°C° 0 mm 2 mps 743 mmHg 54%
18:00 +19°C° 0 mm 2 mps 743 mmHg 59%
19:00 +18°C° 0 mm 2 mps 743 mmHg 65%
20:00 +18°C° 0 mm 2 mps 743 mmHg 70%
21:00 +17°C° 0 mm 2 mps 743 mmHg 72%
22:00 +17°C° 0 mm 2 mps 743 mmHg 75%
23:00 +16°C° 0 mm 2 mps 743 mmHg 78%

8 July, Wednesday

Time Temperature Precipitation Wind Pressure Humidity
00:00 +15°C° 0 mm 2 mps 743 mmHg 78%
01:00 +15°C° 0 mm 2 mps 743 mmHg 78%
02:00 +14°C° 0 mm 2 mps 743 mmHg 78%
03:00 +14°C° 0 mm 2 mps 743 mmHg 79%
04:00 +13°C° 0 mm 2 mps 743 mmHg 80%
05:00 +13°C° 0 mm 2 mps 743 mmHg 81%
06:00 +14°C° 0 mm 2 mps 743 mmHg 75%
07:00 +15°C° 0 mm 2 mps 743 mmHg 69%
08:00 +16°C° 0 mm 2 mps 743 mmHg 64%
09:00 +17°C° 0 mm 2 mps 743 mmHg 60%
10:00 +18°C° 0 mm 2 mps 743 mmHg 56%
11:00 +18°C° 0 mm 3 mps 743 mmHg 52%
12:00 +19°C° 0 mm 2 mps 743 mmHg 50%
13:00 +19°C° 0 mm 2 mps 742 mmHg 48%
14:00 +20°C° 0 mm 2 mps 742 mmHg 47%
15:00 +20°C° 0.1 mm 2 mps 742 mmHg 52%
16:00 +19°C° 0.1 mm 2 mps 742 mmHg 57%
17:00 +19°C° 0.1 mm 3 mps 741 mmHg 62%
18:00 +17°C° 0.4 mm 2 mps 741 mmHg 71%
19:00 +16°C° 0.4 mm 2 mps 741 mmHg 80%
20:00 +14°C° 0.4 mm 2 mps 741 mmHg 89%
21:00 +14°C° 0.2 mm 2 mps 742 mmHg 91%
22:00 +13°C° 0.2 mm 2 mps 742 mmHg 93%
23:00 +12°C° 0.2 mm 2 mps 742 mmHg 94%
Show more